Location: Eschertshofen
(49.3064°N, 11.5756°E)
Time: 12:42:52
(UTC+00:00)

CREW DRAGON DEMO-1 DEB - Pass Details

Date: 18 September 2020
Orbit: 362 x 364 km, 51.6° (Epoch: 24 October)

Event Time Altitude Azimuth Distance (km) Brightness Sun altitude
Rises 18:27:28 0° 275° (W) 2,197 8.6 -11.7°
Reaches altitude 10° 18:29:31 10° 281° (W) 1,352 7.1 -12.0°
Maximum altitude 18:32:28 51° 359° (N) 466 3.4 -12.5°
Enters shadow 18:34:21 20° 70° (ENE) 931 4.3 -12.8°
